SCD 1 1 22490U 93009B 25354.83357186 .00000414 00000+0 62642-4 0 9990 2 22490 24.9682 228.7229 0042122 50.6528 356.9599 14.46004096735273 TECHSAT 1B (GO-32) 1 25397U 98043D 25355.48745454 .00000049 00000+0 41311-4 0 9997 2 25397 98.9929 338.9018 0001780 43.3962 316.7356 14.24379327426037 SCD 2 1 25504U 98060A 25355.58548041 .00000381 00000+0 55780-4 0 9994 2 25504 24.9948 87.3516 0017009 47.0080 336.2832 14.45427795434602 DLR-TUBSAT 1 25757U 99029B 25351.55706930 .00000105 00000+0 37650-4 0 9996 2 25757 98.6566 336.2196 0014199 177.8976 182.2281 14.52359578406886 TERRA 1 25994U 99068A 25355.58997148 .00000384 00000+0 87571-4 0 9998 2 25994 97.9735 46.9492 0003512 76.8406 91.6789 14.60911086383670 MAROC-TUBSAT 1 27004U 01056D 25355.41855537 -.00000030 00000+0 19120-4 0 9993 2 27004 99.7916 164.0156 0019195 237.1012 151.8705 13.70253322201840 AQUA 1 27424U 02022A 25354.90603153 .00000615 00000+0 13306-3 0 9998 2 27424 98.4047 315.9181 0001418 110.6839 325.0971 14.61819722257229 IRS-P6 (RESOURCESAT-1) 1 28051U 03046A 25355.64352969 .00000161 00000+0 67837-4 0 9995 2 28051 98.2166 35.6380 0064703 154.0360 320.8800 14.36078574155045 SHIYAN-1 (SY-1) 1 28220U 04012A 25355.17454168 .00009113 00000+0 33295-3 0 9995 2 28220 97.8926 57.2116 0005217 290.4683 69.5995 15.28343782183857 AURA 1 28376U 04026A 25355.55637365 .00000802 00000+0 17334-3 0 9998 2 28376 98.3197 305.8244 0001385 92.4714 267.6645 14.60965189140274 IRS-P5 (CARTOSAT-1) 1 28649U 05017A 25355.07406593 .00001044 00000+0 11253-3 0 9999 2 28649 97.5484 21.1176 0000741 52.3695 307.7591 14.90430022117284 SINAH 1 1 28893U 05043D 25355.56746487 .00000357 00000+0 77508-4 0 9994 2 28893 98.2609 124.1485 0015666 111.1988 249.0889 14.63971154 74534 EROS B 1 29079U 06014A 25355.60946503 .00164661 00000+0 12964-2 0 9998 2 29079 97.3462 112.6239 0003661 311.9506 48.1445 15.70953571 92195 RESURS-DK 1 1 29228U 06021A 25355.56195782 .00002006 00000+0 12205-3 0 9995 2 29228 69.9338 79.0386 0006864 251.3709 108.6712 15.12205310 75712 ARIRANG-2 (KOMPSAT-2) 1 29268U 06031A 25355.59986687 .00000308 00000+0 66565-4 0 9997 2 29268 97.8253 183.6405 0013168 278.6193 174.3769 14.64500988 35487 LAPAN-TUBSAT 1 29709U 07001A 25355.60320323 .00000758 00000+0 93913-4 0 9992 2 29709 98.1252 345.9418 0013364 48.0549 312.1802 14.85683015 24786 HAIYANG-1B 1 31113U 07010A 25354.84529235 .00000069 00000+0 42056-4 0 9999 2 31113 98.3321 338.7888 0013866 14.9776 345.1816 14.30967553975125 COSMO-SKYMED 1 1 31598U 07023A 25355.55145667 .00002913 00000+0 26617-3 0 9996 2 31598 97.8838 181.0087 0001526 81.8232 278.3162 14.95829297 3226 TERRASAR-X 1 31698U 07026A 25355.54501063 .00000626 00000+0 32984-4 0 9999 2 31698 97.4453 0.7970 0001908 92.2081 267.9372 15.19155537 26257 WORLDVIEW-1 (WV-1) 1 32060U 07041A 25355.31649551 .00005768 00000+0 24181-3 0 9991 2 32060 97.3826 112.6749 0003441 8.1676 351.9617 15.23889862 15783 YAOGAN-3 1 32289U 07055A 25355.61454137 .00001461 00000+0 15772-3 0 9998 2 32289 97.8352 22.1593 0001094 74.1027 286.0312 14.89894587979412 COSMO-SKYMED 2 1 32376U 07059A 25355.60843207 .00000430 00000+0 60609-4 0 9993 2 32376 97.8804 176.7987 0001336 83.0429 277.0936 14.82152751975699 RADARSAT-2 1 32382U 07061A 25355.59169602 -.00000140 00000+0 -37334-4 0 9990 2 32382 98.5790 0.0530 0001138 84.3993 275.7319 14.29983459940578 CARTOSAT-2A 1 32783U 08021A 25355.60139622 -.00000110 00000+0 -81090-5 0 9999 2 32783 97.7920 45.1480 0011205 335.9079 24.1607 14.78948333952552 HUANJING 1A (HJ-1A) 1 33320U 08041A 25355.60001188 .00001298 00000+0 16381-3 0 9999 2 33320 97.6538 343.5284 0019486 6.4177 353.7283 14.83419753932070 HUANJING 1B (HJ-1B) 1 33321U 08041B 25355.62953995 .00000955 00000+0 12289-3 0 9996 2 33321 97.6397 347.2304 0038007 47.6189 312.8231 14.82843064932094 GEOEYE 1 1 33331U 08042A 25355.53683771 .00000473 00000+0 97713-4 0 9991 2 33331 98.1242 66.7065 0002851 246.4092 113.6811 14.64711239924143 THEOS 1 33396U 08049A 25355.62973391 .00000235 00000+0 13027-3 0 9990 2 33396 98.5859 53.4572 0001202 93.8797 266.2517 14.20099116892768 COSMO-SKYMED 3 1 33412U 08054A 25355.57566669 .00000833 00000+0 62452-4 0 9996 2 33412 97.8462 206.1164 0017045 142.6606 217.5808 15.05425425930201 YAOGAN-4 1 33446U 08061A 25355.37686302 .00001061 00000+0 13803-3 0 9995 2 33446 97.9195 285.3917 0013066 292.9270 67.0564 14.82705680919316 GOSAT (IBUKI) 1 33492U 09002A 25355.52430517 .00000669 00000+0 12639-3 0 9993 2 33492 98.0772 104.0056 0000993 101.8988 258.2328 14.67541076905407 DEIMOS-1 1 35681U 09041A 25355.60124060 .00000203 00000+0 37213-4 0 9990 2 35681 97.7145 155.7918 0002571 65.5267 294.6211 14.74963646880708 DUBAISAT-1 1 35682U 09041B 25355.61551522 .00001021 00000+0 16063-3 0 9997 2 35682 97.9798 126.1649 0009234 282.6201 77.3975 14.74626553878928 OCEANSAT-2 1 35931U 09051A 25355.62652140 -.00000104 00000+0 -45689-4 0 9994 2 35931 98.2217 355.3254 0015990 21.7522 338.4321 13.99622987854492 WORLDVIEW-2 (WV-2) 1 35946U 09055A 25355.50688985 .00000133 00000+0 58671-4 0 9992 2 35946 98.4778 66.4711 0004877 49.1744 310.9865 14.37727569850110 SMOS 1 36036U 09059A 25355.48775573 .00000312 00000+0 11357-3 0 9992 2 36036 98.4380 180.4067 0001069 84.0570 276.0740 14.39748569847885 YAOGAN-7 1 36110U 09069A 25355.43136836 .00000505 00000+0 77563-4 0 9990 2 36110 98.0296 237.1571 0023374 251.6264 108.2405 14.77744116863377 TANDEM-X 1 36605U 10030A 25355.47914286 .00000729 00000+0 37921-4 0 9998 2 36605 97.4444 0.7318 0001798 77.8908 282.2528 15.19156092859669 CARTOSAT-2B 1 36795U 10035A 25355.64228738 .00001021 00000+0 14575-3 0 9997 2 36795 97.7843 44.3834 0012793 50.3399 309.8939 14.78737990833614 YAOGAN-10 1 36834U 10038A 25355.62011275 .00000856 00000+0 10764-3 0 9999 2 36834 97.9130 15.3741 0001371 77.1350 73.5272 14.84636184830856 COSMO-SKYMED 4 1 37216U 10060A 25355.55358475 .00000664 00000+0 89960-4 0 9999 2 37216 97.8799 176.7437 0001419 83.8752 276.2623 14.82155946818250 RESOURCESAT-2 1 37387U 11015A 25355.58351563 .00000104 00000+0 67754-4 0 9999 2 37387 98.7865 59.0952 0006013 18.7229 341.4168 14.21600498760940 HAIYANG-2A 1 37781U 11043A 25355.63017034 -.00000146 00000+0 -10060-3 0 9991 2 37781 99.3371 356.4276 0001626 71.0154 289.1174 13.78835610722214 RASAT 1 37791U 11044D 25355.56983685 .00000483 00000+0 92660-4 0 9998 2 37791 98.0652 84.6971 0021517 38.4247 86.0850 14.67920554767121 SRMSAT 1 37841U 11058D 25355.49692175 .00000394 00000+0 70306-4 0 9996 2 37841 19.9726 54.9508 0011965 49.5052 340.4100 14.11514217732682 PLEIADES 1A 1 38012U 11076F 25355.66538589 .00000344 00000+0 83703-4 0 9994 2 38012 98.1819 68.2967 0001173 74.5388 49.7920 14.58569029746116 ZIYUAN 1-02C (ZY 1-02C) 1 38038U 11079A 25355.60415796 .00000672 00000+0 23633-3 0 9992 2 38038 98.4328 61.4547 0007485 115.0573 21.1018 14.38022193733684 ARIRANG-3 (KOMPSAT-3) 1 38338U 12025B 25355.57355277 .00000445 00000+0 98955-4 0 9998 2 38338 98.3335 310.2300 0004843 307.6938 52.3823 14.61723363725397 EXACTVIEW-1 (ADS-1B) 1 38709U 12039C 25355.31036904 .00000115 00000+0 69188-4 0 9990 2 38709 98.9638 103.8803 0010266 328.7162 31.3404 14.24911158697372 SPOT 6 1 38755U 12047A 25355.51905831 .00000551 00000+0 12823-3 0 9993 2 38755 98.1567 60.1421 0001317 77.6678 282.4669 14.58540250707154 PLEIADES 1B 1 39019U 12068A 25355.53846858 .00000549 00000+0 12789-3 0 9993 2 39019 98.1791 68.0517 0001179 84.1993 275.9341 14.58560964694950 GOKTURK 2 1 39030U 12073A 25355.60167721 .00000662 00000+0 10474-3 0 9990 2 39030 97.6885 196.8190 0001322 109.0146 251.1208 14.75302840698324 LANDSAT 8 1 39084U 13008A 25355.44607152 .00000348 00000+0 87368-4 0 9995 2 39084 98.2061 63.3906 0001073 91.3058 268.8264 14.57110870672012 SARAL 1 39086U 13009A 25355.59668266 .00000101 00000+0 53265-4 0 9993 2 39086 98.5502 179.4115 0002959 92.1053 268.0470 14.32759928670178 GAOFEN-1 1 39150U 13018A 25355.57962079 .00001045 00000+0 15690-3 0 9999 2 39150 97.9323 66.0831 0018441 116.1182 244.1928 14.76495832682033 VNREDSAT 1 1 39160U 13021B 25355.63764801 .00000574 00000+0 11584-3 0 9998 2 39160 97.9365 50.6009 0001216 80.6496 279.4845 14.64935352674292 ARIRANG-5 (KOMPSAT-5) 1 39227U 13042A 25355.58875247 .00001675 00000+0 12383-3 0 9997 2 39227 97.6155 179.7660 0003405 35.6029 324.5424 15.04542254677153 SKYSAT-A 1 39418U 13066C 25355.61095989 .00002947 00000+0 17612-3 0 9999 2 39418 97.4093 45.5500 0021350 204.4384 155.5836 15.11663655661649 DUBAISAT-2 1 39419U 13066D 25355.60378762 .00003202 00000+0 20949-3 0 9994 2 39419 97.4439 345.7381 0010048 287.2094 72.8035 15.08429586659609 GPM-CORE 1 39574U 14009C 25355.56144613 .00006314 00000+0 14026-3 0 9991 2 39574 64.9718 183.1397 0009297 248.7595 111.2553 15.44589692670378 SENTINEL-1A 1 39634U 14016A 25355.63042741 -.00000049 00000+0 -64557-6 0 9991 2 39634 98.1794 0.7402 0001266 84.6815 275.4529 14.59200600624121 KAZEOSAT 1 1 39731U 14024A 25355.53272022 .00000364 00000+0 12400-3 0 9999 2 39731 98.3430 67.2432 0001200 97.1056 263.0271 14.42067710612953 ALOS-2 1 39766U 14029A 25355.60295552 .00001500 00000+0 20773-3 0 9998 2 39766 97.9232 90.3234 0001391 97.2593 262.8777 14.79472363625328 KAZEOSAT 2 1 40010U 14033A 25355.58579375 .00000408 00000+0 53511-4 0 9995 2 40010 97.5495 199.4430 0008453 176.0651 184.0633 14.85179820622596 HODOYOSHI-4 1 40011U 14033B 25355.55560274 .00001643 00000+0 18603-3 0 9995 2 40011 97.5406 184.0042 0023900 170.9546 189.2106 14.87511329622394 DEIMOS-2 1 40013U 14033D 25355.62794280 .00001845 00000+0 18265-3 0 9999 2 40013 97.6068 231.1347 0001515 103.9853 256.1536 14.93010817611222 HODOYOSHI-3 1 40015U 14033F 25355.45060395 .00001278 00000+0 15524-3 0 9990 2 40015 97.6204 160.9071 0032300 218.2843 141.6080 14.84833803621247 SPOT 7 1 40053U 14034A 25355.57833321 .00000622 00000+0 13697-3 0 9994 2 40053 98.0899 57.4505 0001562 84.4705 275.6674 14.60744768611209 SKYSAT-B 1 40072U 14037D 25355.36521202 .00001322 00000+0 15309-3 0 9997 2 40072 98.3624 299.5272 0006679 125.9146 234.2689 14.87355619619525 WORLDVIEW-3 (WV-3) 1 40115U 14048A 25355.46570563 .00000844 00000+0 10611-3 0 9991 2 40115 97.8769 67.6385 0001846 134.9342 225.2022 14.84666267615534 GAOFEN-2 1 40118U 14049A 25355.59435769 .00000821 00000+0 11382-3 0 9998 2 40118 98.0377 54.7785 0008768 88.4762 271.7455 14.80623205612955 YAOGAN-21 1 40143U 14053A 25355.61351978 .00004440 00000+0 18728-3 0 9995 2 40143 97.1739 38.5412 0008979 12.7847 347.3616 15.23757887627890 YAOGAN-22 1 40275U 14063A 25355.37788712 -.00000031 00000+0 42583-4 0 9995 2 40275 100.7428 138.9195 0006037 227.5245 132.5356 13.15522911536437 ASNARO 1 40298U 14070A 25355.62887936 .00010406 00000+0 49047-3 0 9991 2 40298 97.3646 71.3592 0005702 97.9983 262.1900 15.19663983617045 YAOGAN-24 1 40310U 14072A 25355.62397675 .00001037 00000+0 15738-3 0 9994 2 40310 98.1227 126.7650 0015134 111.3508 248.9318 14.76195050597520 CBERS 4 1 40336U 14079A 25355.57713515 .00000281 00000+0 11228-3 0 9998 2 40336 98.3300 53.2918 0001832 102.1362 258.0030 14.35521353578479 YAOGAN-26 1 40362U 14088A 25355.57443118 .00012157 00000+0 31067-3 0 9994 2 40362 97.0633 355.9340 0005003 3.6462 356.4820 15.39582352610304 SMAP 1 40376U 15003A 25355.50744884 .00000422 00000+0 90860-4 0 9993 2 40376 98.1288 0.1049 0001228 91.1808 268.9535 14.63355199581639 KOMPSAT-3A 1 40536U 15014A 25355.55848361 .00016079 00000+0 35148-3 0 9995 2 40536 97.6795 330.3937 0005528 107.2590 252.9263 15.44243802594319 SENTINEL-2A 1 40697U 15028A 25355.59233183 .00000448 00000+0 18767-3 0 9993 2 40697 98.5742 68.0010 0001082 86.9219 273.2088 14.30809798548336 GAOFEN-8 1 40701U 15030A 25355.61414410 .00016948 00000+0 44219-3 0 9992 2 40701 97.6902 174.1884 0012045 108.4733 251.7822 15.38826539584079 CARBONITE 1 (CBNT-1) 1 40718U 15032D 25355.62404118 .00001719 00000+0 21845-3 0 9997 2 40718 97.6396 176.2764 0015058 152.3910 207.8107 14.82782385563024 YAOGAN-27 1 40878U 15040A 25355.59547160 -.00000469 00000+0 -11236-2 0 9999 2 40878 100.1006 344.8148 0007597 265.0043 95.0204 13.16058889494306 GAOFEN-9 01 1 40894U 15047A 25355.64086531 .00000887 00000+0 11624-3 0 9994 2 40894 97.6531 34.2115 0027670 5.6278 354.5242 14.82442434553884 YAOGAN-28 1 41026U 15064A 25355.63090568 .00006267 00000+0 25731-3 0 9997 2 41026 97.2814 133.1730 0012648 97.7741 262.4933 15.24484726563602 YAOGAN-29 1 41038U 15069A 25355.59163193 .00000116 00000+0 20993-4 0 9998 2 41038 98.0207 18.7917 0000552 171.5156 188.6067 14.82891427544303 KENT RIDGE 1 1 41167U 15077B 25355.62220887 .00003907 00000+0 13520-3 0 9996 2 41167 14.9785 145.2281 0008538 256.3079 103.6292 15.21699214553998 GAOFEN-4 1 41194U 15083A 25353.64405819 -.00000311 00000+0 00000+0 0 9995 2 41194 0.1878 81.7841 0002945 93.4275 250.8523 1.00273138 36722 JASON-3 1 41240U 16002A 25355.60458429 -.00000066 00000+0 -15868-4 0 9993 2 41240 66.0400 139.1867 0007240 271.3098 88.7091 12.87626880464383 SENTINEL-3A 1 41335U 16011A 25355.57748307 .00000111 00000+0 63792-4 0 9999 2 41335 98.6302 60.4666 0000896 94.6988 265.4295 14.26733887512731 ZIYUAN 3-02 (ZY 3-02) 1 41556U 16033A 25355.60031734 .00005326 00000+0 24173-3 0 9993 2 41556 97.4035 69.6198 0011133 212.9668 147.0875 15.21170440530985 CARTOSAT-2C 1 41599U 16040A 25355.62271819 .00006295 00000+0 30193-3 0 9995 2 41599 97.4755 52.7815 0011051 35.2404 324.9559 15.19192906526756 SKYSAT-C1 1 41601U 16040C 25355.07782596 .00006086 00000+0 19483-3 0 9994 2 41601 96.9809 31.6216 0001408 345.1050 15.0151 15.32727522530552 LAPAN-A3 1 41603U 16040E 25355.58024163 .00003434 00000+0 11480-3 0 9994 2 41603 97.1426 352.8149 0008859 297.8211 62.2133 15.31617808527615 BIROS 1 41604U 16040F 25355.59350807 .00205583 17815-4 59369-3 0 9997 2 41604 97.0687 27.4032 0003656 133.1607 226.9975 15.93029950530138 GAOFEN-3 1 41727U 16049A 25355.61534683 .00000037 00000+0 24337-4 0 9999 2 41727 98.4031 1.0661 0001234 56.2270 303.9037 14.42215637493055 SKYSAT-C4 1 41771U 16058B 25355.62096953 .00012621 00000+0 29306-3 0 9994 2 41771 96.9360 20.3773 0002274 127.7818 232.3637 15.42483467518044 SKYSAT-C5 1 41772U 16058C 25355.61909264 .00007489 00000+0 22972-3 0 9990 2 41772 97.0743 38.9998 0003796 248.9964 111.0874 15.34022446516528 SKYSAT-C2 1 41773U 16058D 25355.59836419 .00009266 00000+0 25432-3 0 9998 2 41773 97.0345 19.7499 0003234 8.9758 351.1544 15.37454642517726 SKYSAT-C3 1 41774U 16058E 25355.58806742 .00015534 00000+0 33448-3 0 9995 2 41774 96.9286 28.9231 0002032 107.3638 252.7834 15.44688941518628 ALSAT 1B 1 41785U 16059C 25355.57411719 .00000273 00000+0 50913-4 0 9994 2 41785 97.7803 6.9826 0010793 78.5545 281.6874 14.72083777494443 PATHFINDER 1 1 41787U 16059E 25355.51964655 .00000629 00000+0 11889-3 0 9995 2 41787 97.8136 357.8858 0029795 54.4562 305.9415 14.67335413493656 SCATSAT 1 1 41790U 16059H 25355.58743053 .00001146 00000+0 15868-3 0 9999 2 41790 98.1451 52.3678 0056474 100.1196 260.6391 14.78963145 75339 GOKTURK 1A 1 41875U 16073A 25355.60054198 .00000097 00000+0 28104-4 0 9999 2 41875 98.1436 247.8474 0001295 83.2368 276.8981 14.62787866482865 RESOURCESAT-2A 1 41877U 16074A 25355.63622895 .00000114 00000+0 72058-4 0 9997 2 41877 98.7751 65.4407 0001409 213.6952 146.4135 14.21603013469075 CARTOSAT-2D 1 41948U 17008A 25355.59049113 .00005560 00000+0 26624-3 0 9992 2 41948 97.4376 52.9541 0005318 135.5673 224.5989 15.19339894490618 SENTINEL-2B 1 42063U 17013A 25355.58511612 .00000354 00000+0 15172-3 0 9996 2 42063 98.5712 67.9074 0001207 91.9552 268.1769 14.30814856459246 CARTOSAT-2E 1 42767U 17036C 25355.60714583 .00005726 00000+0 27460-3 0 9998 2 42767 97.4545 53.0784 0002562 193.6534 166.4632 15.19281354471183 FORMOSAT-5 1 42920U 17049A 25355.46260002 .00000168 00000+0 53867-4 0 9995 2 42920 98.2443 69.6064 0009827 271.8294 88.1775 14.50765229440903 SENTINEL-5P 1 42969U 17064A 25355.57758290 .00000059 00000+0 48835-4 0 9996 2 42969 98.7798 294.0837 0001023 91.1103 269.0191 14.19519508424364 SKYSAT-C11 1 42987U 17068A 25355.34360990 .00018009 00000+0 34865-3 0 9992 2 42987 97.4149 133.0504 0001167 99.4516 260.6866 15.47785613455646 SKYSAT-C10 1 42988U 17068B 25355.61174314 .00008941 00000+0 28964-3 0 9993 2 42988 97.4268 126.4882 0005387 79.4290 280.7558 15.32236176455155 SKYSAT-C9 1 42989U 17068C 25355.61622285 .00010783 00000+0 30682-3 0 9996 2 42989 97.4196 125.9410 0010440 59.3337 300.8934 15.36257498455440 SKYSAT-C8 1 42990U 17068D 25355.63968087 .00009591 00000+0 30234-3 0 9991 2 42990 97.4289 125.6798 0001047 296.3414 63.7721 15.33101109455075 SKYSAT-C7 1 42991U 17068E 25355.60408769 .00008944 00000+0 28728-3 0 9991 2 42991 97.4298 126.6779 0007097 29.4906 330.6735 15.32498854455131 SKYSAT-C6 1 42992U 17068F 25355.32640330 .00008536 00000+0 28172-3 0 9993 2 42992 97.4327 126.8308 0004953 59.6747 300.4984 15.31651111455071 CARTOSAT-2F 1 43111U 18004A 25355.63990593 .00006536 00000+0 31366-3 0 9998 2 43111 97.4307 53.1342 0001399 111.2589 248.8796 15.19206361440375 GAOFEN-1 02 1 43259U 18031A 25355.60294895 .00001227 00000+0 18396-3 0 9990 2 43259 98.0799 53.3957 0002356 181.9347 178.1854 14.76433600416490 GAOFEN-1 03 1 43260U 18031B 25355.58113479 .00000736 00000+0 11330-3 0 9992 2 43260 98.0786 53.2493 0001700 275.3454 84.7562 14.76453577416483 GAOFEN-1 04 1 43262U 18031D 25355.62455306 .00000707 00000+0 10908-3 0 9995 2 43262 98.0800 53.4638 0000699 52.3520 307.7753 14.76423302416481 SENTINEL-3B 1 43437U 18039A 25355.48055605 .00000123 00000+0 68744-4 0 9993 2 43437 98.6256 60.5402 0001622 93.0561 267.0805 14.26737191398785 GAOFEN-5 01 1 43461U 18043A 25355.48677592 .00000364 00000+0 85208-4 0 9991 2 43461 98.4339 318.6072 0000509 280.4248 79.6894 14.60418612405752 GAOFEN-6 1 43484U 18048A 25355.59538050 .00000442 00000+0 70383-4 0 9993 2 43484 97.8026 59.5652 0012800 37.4874 322.7227 14.76579960407182 GAOFEN-11 01 1 43585U 18063A 25355.60207240 .00013457 00000+0 24629-3 0 9999 2 43585 97.1552 58.4638 0003872 268.5706 91.5102 15.49452725412799 ICESAT-2 1 43613U 18070A 25355.51066516 .00009672 00000+0 35145-3 0 9997 2 43613 92.0044 243.1043 0002950 120.3372 239.8169 15.28250610405321 HYSIS 1 43719U 18096A 25355.57623094 .00000783 00000+0 11398-3 0 9996 2 43719 98.0092 58.5113 0001022 50.7247 309.4054 14.78667028381171 KAZSTSAT 1 43783U 18099AB 25355.07690843 .00000165 00000+0 18044-4 0 9991 2 43783 97.4527 29.9030 0006023 292.6870 67.3717 14.99364891384616 SAUDISAT 5A 1 43831U 18102A 25355.64492095 .00004918 00000+0 19518-3 0 9998 2 43831 97.3340 55.6643 0011321 48.7445 311.4767 15.25756888388582 SAUDISAT 5B 1 43833U 18102C 25355.63336442 .00004543 00000+0 17860-3 0 9994 2 43833 97.3435 58.4075 0012049 50.8240 309.4067 15.26105058388694 GAOFEN-10R 1 44622U 19066A 25355.63317670 .00001248 00000+0 16090-3 0 9996 2 44622 98.0290 303.1746 0007272 15.9542 344.1899 14.82819740336066 CARTOSAT-3 1 44804U 19081A 25355.58817980 .00006000 00000+0 28741-3 0 9995 2 44804 97.4572 55.0597 0013845 55.2266 305.0270 15.19222957336501 GAOFEN-12 01 1 44819U 19082A 25355.59595069 .00000388 00000+0 57121-4 0 9992 2 44819 97.8124 1.6445 0001907 190.8434 169.2738 14.80666961327819 CSG-1 1 44873U 19092A 25355.63375046 .00000466 00000+0 65089-4 0 9998 2 44873 97.8803 176.8238 0001471 85.6438 274.4943 14.82151387325176 NEMO-HD 1 46277U 20061F 25355.59385997 .00008381 00000+0 20871-3 0 9990 2 46277 97.2198 54.5796 0001320 52.3263 307.8103 15.40494905294601 SENTINEL-6A 1 46984U 20086A 25355.54081699 -.00000067 00000+0 -26961-4 0 9991 2 46984 66.0395 144.0278 0007718 269.3518 90.6613 12.80930870237572 GAOFEN-12 02 1 48079U 21026A 25355.59370815 .00000383 00000+0 56755-4 0 9992 2 48079 97.9855 349.5575 0003601 83.3468 276.8154 14.80684823255484 PLEIADES NEO 3 1 48268U 21034A 25355.57522705 .00000843 00000+0 11372-3 0 9992 2 48268 97.8950 67.8900 0001404 90.4509 269.6865 14.81675677251354 PLEIADES NEO 4 1 49070U 21073E 25354.73106020 -.00000340 00000+0 -36646-4 0 9998 2 49070 97.8951 67.0538 0001324 89.6187 270.5178 14.81672177234945 LANDSAT 9 1 49260U 21088A 25355.61785066 .00000354 00000+0 88517-4 0 9993 2 49260 98.2083 63.5998 0001114 92.2065 267.9261 14.57106446225149 CSG-2 1 51444U 22008A 25355.59999279 .00000464 00000+0 64888-4 0 9990 2 51444 97.8798 176.7891 0001453 84.3555 275.7824 14.82151772210286 GAOFEN-12 03 1 52912U 22069A 25355.63083395 .00000158 00000+0 27816-4 0 9996 2 52912 97.8488 242.7738 0001927 51.5520 308.5865 14.79625631188359 SWOT 1 54754U 22173A 25355.56735429 .00000010 00000+0 84078-5 0 9993 2 54754 77.6109 275.0737 0000357 87.2638 272.8555 14.00168088154298 GAOFEN-12 04 1 57654U 23123A 25355.59840568 .00001042 00000+0 14557-3 0 9994 2 57654 97.9128 271.2214 0001218 77.5807 282.5541 14.79723426126360 PARS 1 1 59065U 24039Q 25355.62903500 .00010015 00000+0 24308-3 0 9994 2 59065 97.4645 326.7513 0011950 45.1927 315.0289 15.41161080101257 RESURS-P 4 1 59371U 24061A 25355.58986528 .00003318 00000+0 10934-3 0 9993 2 59371 97.2560 301.7388 0000951 65.8076 294.3266 15.32150312 96564 LEGION 1 1 59625U 24081A 25355.57353515 .00003948 00000+0 20579-3 0 9995 2 59625 97.5205 70.1368 0003630 276.9699 83.1121 15.16558272 90616 LEGION 2 1 59626U 24081B 25355.47452997 .00003793 00000+0 19771-3 0 9999 2 59626 97.5209 70.1266 0005655 255.6629 104.3976 15.16571592 90607 ALOS-4 (DAICHI-4) 1 60182U 24123A 25354.81068365 .00001321 00000+0 18374-3 0 9997 2 60182 97.9224 89.5428 0001388 101.3390 258.7977 14.79476697 79501 LEGION 3 1 60452U 24146A 25355.58702121 .00003606 00000+0 19851-3 0 9991 2 60452 45.0015 262.7018 0015683 246.2198 113.7036 15.15845382 75077 LEGION 4 1 60453U 24146B 25355.45549408 .00004212 00000+0 22955-3 0 9998 2 60453 45.0392 355.1829 0008592 358.3798 1.7052 15.15907588 73906 SENTINEL-2C 1 60989U 24157A 25355.48032725 .00000127 00000+0 64988-4 0 9990 2 60989 98.5672 67.8366 0001196 95.3240 264.8079 14.30820836 67573 IONOSFERA-M 1 1 61735U 24199A 25355.61866968 .00000050 00000+0 41922-4 0 9993 2 61735 98.7398 225.3985 0000525 9.6697 350.4491 14.22715890102458 IONOSFERA-M 2 1 61736U 24199B 25355.65330347 .00000052 00000+0 43151-4 0 9993 2 61736 98.7396 225.3453 0001816 99.2222 260.9161 14.22718061105589 BIOMASS 1 63772U 25090A 25355.27678617 .00001012 00000+0 18700-3 0 9997 2 63772 98.0694 180.1621 0001162 85.4071 274.7266 14.67533283 34594 GOSAT-GW (IBUKI GW) 1 64694U 25141A 25355.57786204 .00001103 00000+0 20273-3 0 9992 2 64694 98.0436 290.9310 0001431 84.3373 275.7995 14.67561540 25798 IONOSFERA-M 3 1 64876U 25155A 25355.58227177 .00000056 00000+0 45075-4 0 9993 2 64876 98.5795 317.1986 0001980 45.6577 314.4763 14.21443030 21174 IONOSFERA-M 4 1 64877U 25155B 25355.61733110 .00000047 00000+0 40862-4 0 9996 2 64877 98.5794 317.1520 0001383 54.8444 305.2863 14.21444158 21171 MICROCARB 1 64899U 25156A 25355.21523742 .00000567 00000+0 97829-4 0 9997 2 64899 98.0016 70.4245 0017535 119.2699 241.0264 14.72069919 21787 CO3D 3 1 64900U 25156B 25355.59775860 .00004467 00000+0 20938-3 0 9990 2 64900 97.4337 71.8400 0001216 81.5849 278.5524 15.20197765 22559 CO3D 4 1 64901U 25156C 25355.59791617 .00004362 00000+0 20450-3 0 9992 2 64901 97.4341 71.8384 0001278 166.8206 193.3063 15.20203773 22557 CO3D 2 1 64902U 25156D 25355.56456196 .00002866 00000+0 13549-3 0 9998 2 64902 97.4341 71.7048 0000824 74.4458 285.6869 15.20196251 22543 CO3D 1 1 64903U 25156E 25355.63054466 .00005140 00000+0 24034-3 0 9990 2 64903 97.4341 71.7693 0000890 80.4499 279.6837 15.20209801 22550 SENTINEL-6B 1 66514U 25264A 25346.25094245 -.00000019 00000+0 18195-3 0 9999 2 66514 66.0385 163.4531 0007848 270.1375 89.8741 12.81479575 3220